Lapse_Rate
5.2 5.2 5.2 5.2 5.2 5.2 5.1 4.7 4.6 4.5 4.5 4.5 4.6 4.7 4.7 4.9 4.9 5.0 5.1 5.2 5.2 5.2 5.3 5.3 5.3 5.2 5.2 5.2 5.2 5.1 5.2 5.3 5.3 5.4 5.5 5.4 5.4 5.5 5.3 5.4 5.3 5.2 5.3
5.2 5.2 5.2 5.1 5.2 5.1 4.9 4.9 4.6 4.6 4.7 4.6 4.6 4.7 4.8 5.0 5.0 5.1 5.1 5.2 5.2 5.3 5.3 5.3 5.3 5.3 5.3 5.2 5.2 5.2 5.1 5.2 5.3 5.2 5.3 5.4 5.3 5.4 5.4 5.4 5.3 5.3 5.3
5.3 5.3 5.2 5.1 5.0 4.9 4.8 4.8 4.7 4.8 4.8 4.8 4.9 4.8 4.9 5.1 5.1 5.2 5.2 5.2 5.3 5.4 5.3 5.2 5.1 5.0 5.0 5.1 5.1 5.1 5.1 5.0 5.1 5.2 5.3 5.4 5.3 5.4 5.5 5.5 5.5 5.4 5.3
5.3 5.2 5.1 5.1 4.9 4.8 4.7 4.7 4.8 4.9 4.9 4.8 4.9 5.0 5.1 5.2 5.2 5.3 5.3 5.3 5.2 5.0 5.0 4.9 4.9 4.9 4.8 4.9 5.0 5.0 5.0 5.0 5.1 5.2 5.2 5.3 5.4 5.4 5.5 5.5 5.5 5.6 5.6
5.3 5.1 5.2 5.0 4.9 4.7 4.7 4.6 4.6 4.6 4.6 4.7 4.7 4.7 4.9 5.0 5.1 5.2 5.3 5.1 4.9 4.9 4.8 4.8 4.7 4.7 4.7 4.7 4.6 4.8 4.9 5.1 5.2 5.3 5.3 5.3 5.4 5.6 5.7 5.6 5.7 5.8 5.9
5.1 5.0 5.2 5.0 4.8 4.8 4.7 4.7 4.7 4.8 4.8 4.6 4.7 4.9 4.9 5.0 5.0 4.9 4.9 4.9 4.9 4.8 4.8 4.7 4.8 4.8 4.8 4.7 4.8 4.9 4.9 5.0 5.1 5.0 5.1 5.3 5.3 5.4 5.6 5.7 5.7 5.7 5.8
5.1 5.0 5.1 5.0 4.8 4.7 4.5 4.6 4.8 4.8 4.9 4.9 4.8 4.8 4.9 5.0 5.1 5.0 5.0 4.8 4.8 4.8 4.8 4.8 4.7 4.6 4.6 4.6 4.6 4.6 4.7 4.7 4.7 4.8 5.0 5.1 5.4 5.7 5.8 5.8 5.9 5.9 5.9
5.1 5.1 5.2 4.8 4.7 4.7 4.9 4.8 4.9 4.9 4.7 4.8 4.8 4.8 4.9 4.9 5.0 5.1 5.1 5.1 4.8 4.8 4.7 4.7 4.8 4.6 4.5 4.7 4.8 4.9 5.1 5.2 5.2 5.3 5.2 5.2 5.3 5.5 5.7 5.8 6.0 6.1 6.1
5.2 5.5 5.0 4.6 4.5 4.7 4.7 4.6 4.7 4.8 4.9 4.9 4.8 5.0 5.1 5.0 5.0 5.0 4.9 4.8 4.5 4.4 4.5 4.6 4.4 4.6 4.5 4.6 4.7 4.9 5.1 5.0 5.1 5.2 5.2 5.3 5.3 5.3 5.5 5.7 5.9 6.0 6.0
5.3 5.1 4.9 4.7 4.0 4.3 4.4 4.4 4.4 4.6 5.0 5.0 5.1 5.3 5.1 5.1 4.9 4.8 4.6 4.4 4.4 4.5 4.5 4.4 4.4 4.2 4.2 4.3 4.3 4.4 4.5 4.5 4.7 4.8 4.9 5.1 5.1 5.1 5.0 5.2 5.4 5.7 5.9
5.2 4.8 4.6 4.8 5.0 4.4 4.0 3.7 4.0 4.5 4.8 5.1 5.1 5.5 5.0 4.9 4.7 4.6 4.5 4.8 4.7 4.4 4.4 4.1 4.2 4.0 4.0 4.0 4.0 4.0 4.0 4.1 4.2 4.3 4.5 4.6 4.7 4.8 4.9 4.8 4.8 5.1 5.5
5.2 5.0 5.0 4.3 4.4 4.3 4.6 4.8 4.6 4.8 4.8 4.8 5.0 5.0 5.1 5.0 5.1 4.9 5.0 4.6 4.6 4.3 4.3 4.2 4.1 3.9 3.8 3.7 3.6 3.6 3.6 3.6 3.7 3.8 3.9 4.0 4.1 4.1 4.4 4.6 4.7 4.5 4.3
5.3 4.8 4.4 4.6 4.5 4.7 4.8 5.3 5.3 4.8 4.6 4.6 4.9 5.3 5.3 5.3 5.0 4.7 4.5 4.2 4.1 3.9 4.1 3.9 3.7 3.6 3.5 3.4 3.4 3.4 3.4 3.5 3.5 3.6 3.7 3.8 4.0 4.0 4.0 4.0 4.1 4.1 4.1
4.5 5.0 5.0 4.6 4.7 4.9 5.0 5.1 5.3 5.0 4.8 4.6 4.7 4.9 4.8 4.7 4.5 4.4 4.1 4.0 3.9 4.0 3.8 3.8 3.5 3.6 3.6 3.6 3.4 3.4 3.5 3.8 4.1 4.1 4.2 4.4 4.4 4.3 4.5 4.3 4.3 4.4 4.3
5.1 5.3 5.3 4.9 4.7 4.9 4.9 4.9 5.1 5.0 4.5 4.7 4.5 4.5 4.4 4.4 4.3 4.1 4.0 3.9 3.9 3.8 3.7 3.5 3.5 3.7 3.9 3.9 4.0 4.4 4.6 4.6 4.8 4.8 5.2 5.3 5.4 5.7 5.7 5.9 6.1 6.0 5.8
5.2 5.3 5.7 5.7 5.4 5.4 5.2 5.2 4.8 5.2 4.2 4.3 4.4 4.4 4.2 4.3 4.2 4.2 4.0 3.9 3.9 3.8 3.6 3.6 3.5 3.7 4.1 5.0 5.1 5.2 5.0 5.1 5.1 5.2 5.2 5.4 5.6 5.7 5.8 5.8 6.0 6.1 6.2
5.7 5.7 5.6 5.6 5.1 5.6 5.6 5.1 4.7 4.8 4.7 4.5 4.4 4.3 4.2 4.2 4.0 4.0 4.0 3.8 3.7 3.6 3.5 3.6 3.8 4.3 5.1 5.3 5.5 5.5 5.3 5.2 5.2 5.4 5.5 5.5 5.7 5.8 5.8 5.9 5.9 6.1 6.2
5.7 5.5 5.6 5.6 5.6 5.4 5.2 4.9 5.0 4.9 4.6 4.4 4.2 4.2 4.3 4.2 4.2 4.1 3.8 3.7 3.7 3.7 3.9 4.2 4.7 5.2 5.4 5.6 5.4 5.3 5.3 5.2 5.3 5.3 5.6 5.5 5.7 5.8 5.9 5.9 5.8 5.8 6.0
5.6 5.4 5.5 5.4 5.3 5.1 4.9 4.8 4.7 4.4 4.2 4.0 4.1 4.3 4.4 4.0 3.7 3.5 3.6 3.8 4.0 4.2 4.6 4.6 5.1 5.3 5.4 5.5 5.2 5.3 5.3 5.3 5.2 5.3 5.4 5.5 5.6 5.7 5.8 5.8 5.8 5.7 5.7
5.3 5.2 5.1 5.0 5.0 5.0 4.8 4.6 4.3 3.9 3.8 3.8 3.8 3.7 3.7 3.9 4.0 4.0 4.2 4.5 4.6 4.5 4.5 4.5 4.7 5.0 5.1 5.4 5.1 5.0 5.0 5.1 5.1 5.2 5.3 5.4 5.6 5.7 5.7 5.6 5.7 5.7 5.7
5.2 5.2 5.1 5.0 4.9 4.6 4.4 4.2 4.0 3.8 3.7 3.8 3.9 4.0 4.2 4.5 4.8 4.8 4.7 4.5 4.2 4.4 4.4 4.5 4.6 4.9 5.3 5.2 4.9 4.7 4.9 4.8 4.8 4.9 5.2 5.3 5.6 5.7 5.5 5.6 5.7 5.8 5.9
4.9 4.8 4.7 4.5 4.3 4.1 4.1 3.8 3.7 3.5 3.6 3.4 3.6 4.1 4.6 5.0 5.2 5.0 4.8 4.4 4.5 4.6 4.6 4.7 4.6 4.8 4.9 4.7 4.5 4.4 4.5 4.4 4.6 4.5 4.7 5.0 5.3 5.6 5.4 5.5 5.7 6.0 6.1
4.6 4.3 4.3 4.2 4.1 3.8 3.7 3.5 3.4 3.2 3.5 4.1 4.9 5.5 5.7 5.7 5.5 5.2 5.0 4.9 4.8 4.6 4.5 4.6 4.5 4.8 4.6 4.7 4.1 4.2 4.0 4.1 4.4 4.5 4.6 4.9 4.6 5.0 4.9 5.4 5.7 6.0 6.1
4.5 4.4 4.0 3.8 3.5 3.5 3.2 3.2 3.0 3.4 4.4 4.9 5.4 5.9 6.0 5.9 5.5 5.2 4.9 4.8 4.9 5.0 4.9 4.6 4.3 4.6 4.7 4.7 4.1 3.9 3.6 3.5 3.8 4.2 4.1 5.1 4.6 4.6 4.4 4.8 5.3 5.8 6.2
3.9 3.7 3.5 3.2 3.1 2.8 2.8 2.5 2.9 4.0 4.9 5.4 5.6 5.7 5.6 5.5 5.5 5.2 4.8 5.0 5.2 5.2 4.8 4.4 4.4 4.5 4.6 4.4 3.8 3.4 3.5 3.5 4.1 4.3 4.3 4.5 4.9 4.8 4.7 5.2 5.2 5.5 5.9
3.5 3.2 3.1 3.0 2.7 2.7 2.5 2.6 3.6 4.7 5.4 5.3 5.3 5.2 5.1 5.1 5.1 4.9 4.7 4.8 5.1 5.0 4.5 4.4 4.4 4.3 4.3 4.3 4.3 4.0 3.7 3.7 3.9 4.1 4.7 4.5 4.6 5.1 5.5 5.7 5.9 5.8 6.0
Wind_Speed
9 11 11 11 11 12 11 11 11 10 10 10 10 11 12 13 14 14 15 15 18 19 20 21 21 22 22 23 23 23 23 23 23 22 23 22 22 22 22 23 22 22 18
11 10 10 10 11 12 13 12 11 10 9 10 8 9 10 11 12 12 14 15 15 17 18 19 19 20 20 21 21 21 21 21 22 22 21 21 21 21 20 21 21 21 19
12 11 10 9 11 12 13 12 11 10 8 9 8 8 8 10 11 11 9 11 13 16 15 15 16 16 17 18 18 18 18 19 19 20 20 20 20 20 20 20 19 19 19
13 12 10 10 13 12 12 10 7 7 7 6 6 5 7 7 8 9 8 7 6 8 11 11 12 12 13 14 15 15 15 16 16 17 17 17 17 18 18 18 18 17 17
14 12 11 12 14 11 10 7 7 7 6 5 5 5 4 4 6 6 8 6 5 4 5 8 9 10 11 12 12 12 12 12 13 14 15 16 16 16 15 16 16 16 16
13 12 11 13 13 8 7 7 8 6 6 6 5 4 4 3 3 3 4 5 5 4 2 2 2 7 9 9 10 11 10 11 12 12 12 13 13 14 14 13 14 14 14
12 9 9 10 12 9 9 9 7 8 5 5 5 4 3 2 4 4 5 4 4 3 2 1 1 1 4 9 11 10 10 10 11 12 13 14 14 13 12 11 11 12 12
13 12 6 6 10 7 9 9 7 6 4 5 4 3 4 4 4 4 4 4 5 5 4 4 3 3 2 3 6 7 8 9 11 12 13 14 14 14 13 11 9 10 11
11 9 6 4 7 7 7 8 8 9 6 4 4 2 2 5 4 4 5 5 5 4 4 3 3 1 1 2 4 4 7 9 10 12 12 13 13 13 14 14 11 8 9
13 16 13 8 3 4 3 5 5 6 5 6 4 5 5 4 4 4 4 5 5 5 5 5 4 3 3 4 3 3 6 9 10 11 12 12 13 13 14 14 15 11 8
9 19 5 6 6 7 6 5 8 9 6 5 6 4 6 5 6 6 5 5 3 4 5 6 6 6 6 7 8 7 4 8 9 11 13 15 14 14 15 15 16 17 10
5 10 10 5 4 7 9 7 10 9 8 7 6 6 5 4 6 5 5 7 7 5 5 7 7 7 7 8 8 5 6 9 10 12 13 15 15 16 15 15 16 18 17
7 13 12 9 8 13 12 11 7 8 7 7 8 6 4 4 3 5 6 7 4 4 4 5 7 8 9 10 10 4 9 11 12 14 15 17 18 18 17 16 16 15 17
5 12 12 12 13 10 11 8 5 4 5 5 6 5 4 4 3 4 5 5 7 6 6 9 4 8 10 10 8 6 13 13 13 15 16 18 19 19 19 18 17 16 17
5 9 11 11 7 9 6 2 2 5 5 5 5 4 3 2 3 3 3 4 6 9 9 7 4 6 8 10 12 13 15 16 15 16 18 19 20 20 21 20 19 19 18
7 8 5 4 4 3 3 5 3 6 5 3 3 4 3 2 3 3 4 4 5 8 9 7 6 8 11 14 16 17 18 17 18 19 19 20 21 22 23 23 22 21 20
6 7 6 4 2 3 6 6 7 6 5 4 3 3 4 4 4 4 4 5 6 6 8 9 8 8 12 11 16 17 17 16 17 17 17 18 20 22 23 23 22 23 22
8 9 8 8 7 6 5 5 5 4 3 4 5 4 5 4 6 6 5 7 7 8 7 12 10 9 11 12 16 14 16 17 18 18 17 18 19 20 21 23 25 25 22
11 10 9 7 6 5 3 2 1 2 3 4 4 6 8 7 8 6 7 8 7 7 8 9 9 8 9 10 12 14 13 16 16 15 16 16 16 16 18 19 20 21 22
10 9 8 7 5 4 3 1 1 3 5 6 7 8 9 8 9 10 9 10 10 9 10 8 5 8 12 11 10 10 9 8 7 13 14 16 14 15 18 19 19 17 17
8 8 7 6 5 3 3 3 2 5 7 8 8 8 8 11 13 13 9 11 12 8 5 5 7 9 12 10 8 9 9 9 9 9 8 9 10 9 10 13 14 14 14
8 6 6 5 4 2 6 6 7 8 8 9 9 10 10 12 13 17 18 20 14 7 10 8 9 10 14 9 10 10 9 9 9 10 7 8 6 7 10 12 10 10 13
6 6 6 5 5 5 9 9 9 8 7 8 9 10 10 8 10 11 14 15 17 19 19 16 16 16 13 11 11 10 10 9 9 6 6 8 7 9 11 13 12 12 13
6 6 6 6 6 4 8 8 10 10 9 11 11 11 12 12 12 13 13 14 15 15 12 10 12 13 14 14 11 12 12 11 10 6 7 5 7 9 9 12 16 12 14
5 5 5 6 6 6 7 10 11 10 11 12 11 12 11 13 16 15 11 13 14 14 19 24 26 27 27 26 25 10 8 8 3 4 6 7 6 8 8 8 14 15 13
4 4 5 5 6 8 9 11 11 8 11 9 11 11 13 13 17 17 11 11 13 14 14 12 10 12 17 15 19 15 9 6 6 4 8 9 8 4 6 8 7 9 5
Wind_Direction
171 164 155 155 150 144 141 131 130 124 117 110 110 108 106 102 100 99 95 81 85 86 84 81 79 75 71 69 66 62 61 58 54 51 50 46 45 43 39 39 37 38 38
169 170 162 152 149 150 147 144 138 127 122 114 105 102 105 104 105 108 107 86 75 85 82 77 75 74 70 66 64 61 57 56 53 49 47 46 42 40 36 35 34 33 33
172 167 165 157 153 156 150 144 137 134 128 126 124 118 112 113 111 111 113 112 95 66 76 78 74 71 69 67 62 59 56 51 49 48 45 43 38 37 34 30 28 25 25
173 166 164 160 159 155 155 153 155 149 141 137 138 127 124 124 119 116 117 119 109 105 88 71 69 66 62 59 55 55 52 47 46 44 41 38 38 33 29 27 24 22 18
173 171 165 162 161 162 166 162 157 155 154 149 144 144 144 136 132 142 138 132 108 94 95 85 69 60 58 49 42 43 43 43 38 31 28 27 25 23 22 19 15 16 16
171 179 168 166 166 167 173 175 167 166 161 156 152 154 158 157 169 189 156 162 146 145 111 61 83 78 65 60 49 40 29 20 15 13 10 10 9 9 9 12 9 6 6
157 137 175 173 177 181 181 186 170 157 152 161 153 164 160 199 190 197 200 199 166 182 177 172 101 72 93 76 54 44 29 12 3 355 349 343 342 342 347 349 358 357 357
162 163 159 183 195 184 180 182 185 173 153 190 213 202 199 185 196 198 209 207 208 192 192 188 157 104 75 48 42 29 14 352 338 331 326 325 324 323 322 321 334 341 344
145 105 108 199 213 189 188 194 200 195 175 185 218 243 191 241 181 187 199 202 212 209 204 187 183 155 26 353 322 330 9 342 334 328 326 325 325 324 320 314 307 317 324
115 84 54 28 310 278 188 196 214 208 197 192 202 234 251 298 234 195 208 215 221 212 197 204 218 231 263 295 312 310 335 326 322 320 320 320 320 319 316 314 304 291 293
164 128 101 2 15 341 298 227 221 214 223 226 216 195 222 235 258 270 262 182 236 235 221 233 225 251 273 292 302 304 316 312 313 312 314 314 312 313 312 307 304 296 268
131 163 144 203 264 258 253 249 235 225 221 233 225 227 225 228 233 251 262 252 248 189 222 228 239 254 271 282 285 288 287 300 305 303 305 302 300 303 304 304 298 296 290
178 176 170 190 232 236 241 238 235 230 224 235 228 226 225 218 244 251 268 273 275 236 249 246 251 259 271 276 285 277 282 288 291 295 297 297 298 300 300 298 296 291 291
193 166 179 200 236 245 228 224 233 222 204 221 230 224 214 208 209 233 255 265 254 252 244 275 265 264 275 278 299 297 278 273 278 282 284 284 287 291 291 292 292 287 284
150 157 179 206 210 184 148 81 277 242 217 202 202 199 206 190 198 223 245 254 270 276 274 267 254 275 283 285 292 289 286 287 281 278 278 277 278 281 285 286 287 285 279
146 138 121 119 171 139 128 145 178 223 193 170 180 183 197 195 215 223 246 256 260 271 277 281 267 271 280 285 289 288 286 290 281 275 275 274 274 276 276 277 280 280 276
107 122 129 135 163 155 181 164 191 182 178 168 181 207 216 212 236 237 246 256 262 266 275 280 283 272 278 288 292 290 289 286 283 273 265 268 272 273 273 272 274 275 272
119 134 144 149 143 156 163 166 169 180 185 200 205 225 244 247 248 250 249 259 261 265 264 280 286 290 288 291 294 292 290 286 280 275 276 279 273 270 271 270 268 269 271
99 102 110 114 117 115 114 113 180 209 227 240 231 244 255 254 260 263 258 264 264 261 268 269 281 288 291 291 284 283 283 284 275 275 265 265 268 269 271 274 276 269 265
89 90 88 84 78 74 67 56 276 255 249 253 266 266 271 265 264 270 271 265 266 265 262 272 271 285 285 283 276 289 291 288 303 294 287 271 274 273 268 265 267 264 268
85 82 85 81 73 69 41 336 280 281 278 279 271 269 267 278 291 283 284 277 276 275 275 256 263 263 272 292 287 281 281 284 275 276 273 277 267 271 261 243 254 254 261
76 73 64 54 37 29 17 356 328 305 293 294 295 294 293 288 273 274 277 280 269 236 247 248 251 256 266 265 265 273 269 278 279 280 275 285 281 279 271 273 269 269 274
54 45 37 24 4 359 5 346 335 308 308 297 295 293 290 286 282 278 281 275 272 274 278 283 281 276 280 275 265 268 267 257 260 261 255 267 277 272 280 272 245 258 270
30 20 9 357 345 359 359 347 337 309 302 292 292 293 291 289 285 287 284 281 275 275 284 277 267 268 271 276 273 273 269 275 272 277 284 260 254 264 266 263 270 256 263
2 353 346 335 332 324 2 339 326 309 299 296 297 294 291 293 291 284 278 279 283 278 275 269 265 268 269 267 267 261 257 256 234 230 241 240 253 262 272 269 273 258 263
338 331 333 337 342 317 317 318 317 301 291 299 306 302 291 289 294 294 288 281 280 281 276 278 274 297 297 295 291 281 265 221 236 258 225 248 264 264 274 273 284 297 282